User: anonymous   Login
Location: Unspecified
(0.0000°N, 0.0000°E)
Time: 10:15:39
(UTC+00:00)
Language:

ITAMSAT 1 - Orbit

View from above orbital plane
View from above orbital plane
View from above satellite
View from above satellite

Ground track
Ground track

The orbit data is extracted from the following two-line orbital elements,

1 22826U 93061D   19081.92352920 -.00000019 +00000-0 +10634-4 0  9999
2 22826 098.8917 068.5872 0007948 240.5213 119.5176 14.30386865329351
Epoch (UTC): 22 March 2019 22:09:52
Eccentricity: 0.0007948
inclination: 98.8917°
perigee height: 785 km
apogee height: 796 km
right ascension of ascending node: 68.5872°
argument of perigee: 240.5213°
revolutions per day: 14.30386865
mean anomaly at epoch: 119.5176°
orbit number at epoch: 32935

The dashed part of the orbit path shows where the satellite is in the earth's shadow,  

DLR